Home   Weather   33°54'N, 118°02'W   Past weeks
Flag for USA

Past Weather in 33°54'N, 118°02'W, USA — Yesterday and Last 2 Weeks

Now
75 °F

Sunny.


Feels Like: 77 °F
Forecast: 79 / 63 °F
Wind: N/A

Location: Los Angeles / USC Campus Downtown

Current Time: Jul 20, 2019 at 5:37:58 pm

Latest Report: Jul 20, 2019 at 4:52 pm


Visibility: 10 mi

Pressure: 29.87 "Hg

Humidity: 60%

Dew Point: 60 °F

Location of 33°54'N, 118°02'WLocation

Past Weather in 33°54'N, 118°02'W — Graph

°F

33°54'N, 118°02'W Temperature Yesterday

Maximum temperature yesterday: 81 °F (at 11:52 am)
Minimum temperature yesterday: 62 °F (at 9:52 am)
Average temperature yesterday: 69 °F

High & Low Weather Summary for the Past Weeks

 TemperatureHumidityPressure
High88 °F (Jul 13, 4:52 pm)93% (Jul 15, 5:52 am)30.05 "Hg (Jul 15, 5:52 am)
Low50 °F (Jul 8, 10:52 pm)19% (Jul 13, 4:52 pm)29.77 "Hg (Jul 12, 5:52 pm)
Average71 °F70%29.93 "Hg
* Reported Jul 5 3:52 pm — Jul 20 3:52 pm, 33°54'N, 118°02'W. Weather by CustomWeather, © 2019

Note: Actual official high and low records may vary slightly from our data, if they occured in-between our weather recording intervals... More about our weather records

Advertising

33°54'N, 118°02'W Weather History for the Previous 24 Hours

Scroll right to see more
 ConditionsComfort  
Time TempWeatherWind HumidityBarometerVisibility
3:52 pm
Sat, Jul 20
76 °FSunny.3 mph56%29.88 "Hg10 mi
2:52 pm76 °FSunny.N/A56%29.89 "Hg10 mi
1:52 pm76 °FSunny.6 mph58%29.91 "Hg10 mi
12:52 pm77 °FSunny.6 mph56%29.92 "Hg10 mi
11:52 am79 °FSunny.No wind52%29.92 "Hg10 mi
10:52 am79 °FSunny.No wind50%29.93 "Hg9 mi
10:07 am75 °FScattered clouds.No wind60%29.95 "Hg8 mi
9:52 am75 °FPartly sunny.No wind60%29.94 "Hg8 mi
8:52 am71 °FOvercast.No wind66%29.95 "Hg8 mi
7:52 am69 °FOvercast.No wind68%29.94 "Hg8 mi
5:52 am68 °FOvercast.No wind73%29.93 "Hg9 mi
4:52 am67 °FOvercast.No wind76%29.93 "Hg9 mi
3:52 am67 °FOvercast.No wind76%29.92 "Hg9 mi
3:01 am67 °FOvercast.No wind76%29.94 "Hg10 mi
2:52 am67 °FOvercast.No wind76%29.93 "Hg10 mi
1:52 am66 °FOvercast.No wind78%29.93 "Hg10 mi
12:52 am66 °FOvercast.No wind78%29.93 "Hg10 mi
11:57 pm
Fri, Jul 19
66 °FPassing clouds.3 mph78%29.94 "Hg10 mi
10:52 pm66 °FPassing clouds.3 mph78%29.92 "Hg10 mi
9:52 pm67 °FClear.6 mph76%29.92 "Hg10 mi
8:52 pm68 °FClear.5 mph73%29.89 "Hg10 mi
7:52 pm69 °FSunny.5 mph68%29.88 "Hg10 mi
6:52 pm73 °FSunny.5 mph62%29.88 "Hg10 mi
5:52 pm74 °FSunny.5 mph60%29.88 "Hg10 mi
Weather by CustomWeather, © 2019

See weather overview